Home   Weather   Santa Barbara   Past weeks

Flag for USA Past Weather in Santa Barbara, California, USA — Yesterday and Last 2 Weeks

Now
56 °F

Sunny.


Feels Like: 56 °F
Forecast: 64 / 82 °F
Wind: 3 mph from Northeast

Location: Santa Barbara Municipal Airport

Current Time: Jun 26, 2017 at 6:55:27 am

Latest Report: Jun 26, 2017 at 5:53 am


Visibility: 9 mi

Pressure: 29.88 "Hg

Humidity: 100%

Dew Point: 56 °F

Location of Santa BarbaraLocation

Past Weather in Santa Barbara — Graph

°F

Santa Barbara Temperature Yesterday

Maximum temperature yesterday: 78 °F (at 2:53 pm)
Minimum temperature yesterday: 58 °F (at 4:53 am)
Average temperature yesterday: 67 °F

High & Low Weather Summary for the Past Weeks

 TemperatureHumidityPressure
High78 °F (Jun 25, 2:53 pm)100% (Jun 15, 5:53 am)30.03 "Hg (Jun 15, 5:53 am)
Low51 °F (Jun 11, 4:53 am)30% (Jun 12, 11:53 am)29.69 "Hg (Jun 21, 6:53 pm)
Average64 °F81%29.86 "Hg
* Reported Jun 11 4:53 am — Jun 26 4:53 am, Santa Barbara. Weather by CustomWeather, © 2017

Note: Actual official high and low records may vary slightly from our data, if they occured in-between our weather recording intervals... More about our weather records

Advertising

Santa Barbara Weather History for the Previous 24 Hours

Scroll right to see more
 ConditionsComfort  
Time TempWeatherWind HumidityBarometerVisibility
4:53 am
Mon, Jun 26
57 °FClear.No wind93%29.87 "Hg10 mi
3:53 am58 °FClear.3 mph93%29.87 "Hg10 mi
2:53 am58 °FClear.No wind97%29.87 "Hg10 mi
1:53 am61 °FClear.5 mph90%29.87 "Hg10 mi
12:53 am61 °FClear.No wind90%29.87 "Hg9 mi
11:53 pm
Sun, Jun 25
62 °FClear.6 mph96%29.88 "Hg8 mi
10:53 pm63 °FClear.3 mph87%29.87 "Hg9 mi
9:53 pm65 °FClear.7 mph87%29.87 "Hg9 mi
8:53 pm66 °FClear.5 mph84%29.86 "Hg10 mi
7:53 pm67 °FSunny.5 mph85%29.86 "Hg10 mi
6:53 pm69 °FSunny.7 mph76%29.85 "Hg10 mi
5:53 pm71 °FSunny.7 mph71%29.85 "Hg10 mi
4:53 pm74 °FSunny.6 mph64%29.86 "Hg10 mi
3:53 pm75 °FSunny.6 mph60%29.88 "Hg10 mi
2:53 pm78 °FSunny.9 mph54%29.90 "Hg10 mi
1:53 pm75 °FSunny.13 mph62%29.91 "Hg10 mi
12:53 pm73 °FSunny.9 mph66%29.92 "Hg10 mi
11:53 am72 °FSunny.6 mph71%29.92 "Hg9 mi
10:53 am68 °FSunny.6 mph82%29.92 "Hg10 mi
9:53 am67 °FSunny.7 mph85%29.90 "Hg9 mi
8:53 am66 °FSunny.7 mph87%29.91 "Hg8 mi
7:53 am65 °FSunny.5 mph87%29.90 "Hg8 mi
6:53 am61 °FSunny.No wind90%29.89 "Hg10 mi
Weather by CustomWeather, © 2017

See weather overviewHow to use our weather pages